Погода в Марондере

Зимбабве     18°11′14″S   31°33′14″E
темп.,
°C
ветер,
м/с
пор.,
м/с
влажн.,
%
обл.,
%
осадки,
мм/ч
давл.,
гПа
погр.,
м
19 апреля, пн
пн1923:00+10в22947 0.0 102326
02:00+9вюв12945 0.0 102219
05:00+8юв22965 0.0 102240
08:00+13юв3474100 0.0 1022325
11:00+20юв3343100 0.0 10201209
14:00+23юв3234100 0.0 10161914
17:00+19ююв464695 0.0 1017358
20:00+13в247080 0.0 102193
20 апреля, вт
вт2023:00+11вюв2280100 0.0 102128
02:00+11юв12846 0.0 102123
05:00+9вюв119287 0.0 102114
08:00+14юв3670100 0.0 1022395
11:00+20юв4547100 0.0 10211391
14:00+22ююв443888 0.0 10171966
17:00+18ююв575189 0.0 1019800
20:00+14юв396934 0.0 1022321
21 апреля, ср
ср2123:00+10юв388052 0.0 1022169
02:00+9юв3108783 0.0 1022236
05:00+8юв3109442 0.0 1022261
08:00+14юв5975100 0.0 1023468
11:00+20юв444611 0.0 10201186
14:00+23ююв323857 0.0 10171918
17:00+20ююв574976 0.0 1017496
20:00+16юв41059100 0.0 1020481
22 апреля, чт
чт2223:00+11ююв38971 0.0 1022198
02:00+10юв26977 0.0 1021139
05:00+9юв259817 0.0 102196
08:00+15вюв34720 0.0 1022287
11:00+22ююв32430 0.0 10191576
14:00+24ююв333596 0.0 10152575
17:00+20всв244982 0.0 1016116
20:00+15в126711 0.0 101914
23 апреля, пт
пт2323:00+15вюв116793 0.0 102013
02:00+15ююв117062 0.0 101914
05:00+11вюв11880 0.0 101911
08:00+18юв12593 0.0 1019322
11:00+23ю33373 0.0 10172062
14:00+25ю332831 0.0 10132923
17:00+21ююв583433 0.0 1014475
20:00+14вюв35485 0.0 101778